Flag for Philippines Weather past 2 weeks in Olongapo, Philippines

Now
91 °F

Partly sunny.


Feels Like: 103 °F
Forecast: 76 / 89 °F
Wind: 5 mph from Southwest

Location: Subic Bay Weather Station

Current Time: Sep 3, 2015 at 3:54:11 PM

Latest Report: Sep 3, 2015 at 3:00 PM


Visibility: N/A

Pressure: 29.80 "Hg

Humidity: 59%

Dew point: 75 °F

Location of OlongapoLocation

Historic Weather in Olongapo — Graph

°F

Olongapo temperature yesterday

Maximum temperature yesterday: 91 °F (at 1:00 PM)
Minimum temperature yesterday: 79 °F (at 2:00 AM)
Average temperature yesterday: 83 °F

Past Weeks' High & Low Weather Summary

 TemperatureHumidityPressure
High91 °F (Sep 2, 1:00 PM)94% (Aug 20, 5:00 AM)29.92 "Hg (Aug 20, 5:00 AM)
Low73 °F (Aug 24, 3:00 AM)59% (Aug 28, 12:00 PM)29.53 "Hg (Aug 21, 3:00 PM)
Average81 °F81%29.77 "Hg
* Reported Aug 19 2:00 PM — Sep 3 2:00 PM, Olongapo, Weather by CustomWeather, © 2015

Note: Actual official high and low records may vary slightly from our data, if they occured in-between our weather recording intervals... More about our weather records

Advertising

Olongapo weather history for previous 24 hours

 ConditionsComfort  
Time TempWeatherWind HumidityBarometerVisibility
2:00 PM
Thu, Sep 3
91 °FBroken clouds.No wind59%29.80 "HgN/A
1:00 PM90 °FBroken clouds.7 mph63%29.83 "HgN/A
12:00 PM90 °FPartly sunny.7 mph63%29.86 "HgN/A
11:00 AM86 °FPartly sunny.12 mph70%29.86 "HgN/A
10:00 AM86 °FPartly sunny.14 mph70%29.86 "HgN/A
9:00 AM82 °FPartly sunny.8 mph74%29.86 "HgN/A
8:00 AM82 °FScattered clouds.13 mph74%29.86 "HgN/A
7:00 AM79 °FScattered clouds.5 mph84%29.86 "HgN/A
6:00 AM79 °FScattered clouds.2 mph84%29.86 "HgN/A
5:00 AM77 °FPassing clouds.No wind89%29.86 "HgN/A
4:00 AM77 °FPassing clouds.No wind89%29.83 "HgN/A
3:00 AM79 °FPassing clouds.No wind84%29.83 "HgN/A
2:00 AM77 °FPassing clouds.No wind89%29.86 "HgN/A
1:00 AM79 °FPassing clouds.No wind84%29.89 "HgN/A
12:00 AM79 °FPassing clouds.No wind84%29.89 "HgN/A
11:00 PM
Wed, Sep 2
79 °FThundershowers. Passing clouds.13 mph84%29.89 "Hg6 mi
10:00 PM81 °FThundershowers. Passing clouds.No wind84%29.86 "HgN/A
9:00 PM82 °FPassing clouds.No wind79%29.86 "HgN/A
8:00 PM82 °FPassing clouds.1 mph79%29.83 "HgN/A
7:00 PM82 °FPassing clouds.No wind84%29.83 "HgN/A
6:00 PM84 °FScattered clouds.No wind79%29.80 "HgN/A
5:00 PM84 °FScattered clouds.5 mph79%29.80 "HgN/A
4:00 PM82 °FPartly sunny.3 mph84%29.80 "HgN/A
3:00 PM79 °FHeavy rain. Broken clouds.9 mph89%29.80 "Hg6 mi
Weather by CustomWeather, © 2015

See weather overviewHow to use our weather pages